• en Suisse
  • Liste des pays
  • À 7 jours
  • Température de l'eau
  • Carte satellitaire
  • Carte météo
  • Widgets météo
  • user-avatar
    Se connecter

    Météo par heure à Kupkovo

    Ce jour, 22 Juin, Vendredi

    Heure Température Précipitation Vent Pression Humidité
    00:00 +17°C° 0,8 mm 5 m/s 744 mmHg 93%
    01:00 +17°C° 0,8 mm 5 m/s 744 mmHg 94%
    02:00 +17°C° 0 mm 5 m/s 743 mmHg 96%
    03:00 +16°C° 0,3 mm 5 m/s 743 mmHg 95%
    04:00 +15°C° 0,3 mm 5 m/s 743 mmHg 95%
    05:00 +14°C° 0,3 mm 5 m/s 743 mmHg 94%
    06:00 +14°C° 0 mm 6 m/s 744 mmHg 87%
    07:00 +14°C° 0 mm 6 m/s 744 mmHg 81%
    08:00 +15°C° 0 mm 6 m/s 745 mmHg 70%
    09:00 +16°C° 0 mm 6 m/s 745 mmHg 63%
    10:00 +17°C° 0 mm 7 m/s 745 mmHg 56%
    11:00 +17°C° 0 mm 7 m/s 745 mmHg 49%
    12:00 +18°C° 0 mm 7 m/s 745 mmHg 46%
    13:00 +18°C° 0 mm 8 m/s 745 mmHg 43%
    14:00 +20°C° 0 mm 8 m/s 745 mmHg 41%
    15:00 +18°C° 0 mm 8 m/s 746 mmHg 43%
    16:00 +18°C° 0 mm 8 m/s 746 mmHg 45%
    17:00 +17°C° 0 mm 9 m/s 746 mmHg 47%
    18:00 +16°C° 0 mm 8 m/s 747 mmHg 53%
    19:00 +14°C° 0 mm 7 m/s 748 mmHg 60%
    20:00 +12°C° 0 mm 7 m/s 749 mmHg 66%
    21:00 +11°C° 0 mm 6 m/s 749 mmHg 70%
    22:00 +10°C° 0 mm 5 m/s 750 mmHg 74%
    23:00 +9°C° 0 mm 5 m/s 751 mmHg 79%

    Demain, 23 Juin, Samedi

    Heure Température Précipitation Vent Pression Humidité
    00:00 +8°C° 0 mm 5 m/s 751 mmHg 81%
    01:00 +8°C° 0 mm 5 m/s 751 mmHg 82%
    02:00 +8°C° 0 mm 5 m/s 751 mmHg 84%
    03:00 +8°C° 0 mm 5 m/s 752 mmHg 83%
    04:00 +10°C° 0 mm 4 m/s 752 mmHg 81%
    05:00 +10°C° 0 mm 4 m/s 752 mmHg 80%
    06:00 +12°C° 0 mm 4 m/s 752 mmHg 73%
    07:00 +13°C° 0 mm 4 m/s 752 mmHg 66%
    08:00 +15°C° 0 mm 4 m/s 753 mmHg 60%
    09:00 +17°C° 0 mm 4 m/s 753 mmHg 55%
    10:00 +18°C° 0 mm 4 m/s 753 mmHg 49%
    11:00 +19°C° 0 mm 4 m/s 753 mmHg 44%
    12:00 +19°C° 0 mm 3 m/s 752 mmHg 44%
    13:00 +20°C° 0 mm 3 m/s 752 mmHg 44%
    14:00 +20°C° 0 mm 3 m/s 752 mmHg 44%
    15:00 +20°C° 0 mm 3 m/s 752 mmHg 45%
    16:00 +20°C° 0 mm 2 m/s 752 mmHg 47%
    17:00 +20°C° 0 mm 2 m/s 752 mmHg 49%
    18:00 +18°C° 0 mm 2 m/s 752 mmHg 57%
    19:00 +18°C° 0 mm 1 m/s 752 mmHg 65%
    20:00 +16°C° 0 mm 1 m/s 752 mmHg 73%
    21:00 +15°C° 0 mm 1 m/s 752 mmHg 77%
    22:00 +14°C° 0 mm 1 m/s 752 mmHg 80%
    23:00 +12°C° 0 mm 1 m/s 752 mmHg 83%

    Après-demain, 24 Juin, Dimanche

    Heure Température Précipitation Vent Pression Humidité
    00:00 +12°C° 0 mm 1 m/s 752 mmHg 83%
    01:00 +12°C° 0 mm 2 m/s 752 mmHg 84%
    02:00 +12°C° 0 mm 2 m/s 752 mmHg 84%
    03:00 +12°C° 0,1 mm 2 m/s 752 mmHg 84%
    04:00 +12°C° 0,1 mm 2 m/s 752 mmHg 85%
    05:00 +12°C° 0,1 mm 2 m/s 751 mmHg 86%
    06:00 +11°C° 0,5 mm 3 m/s 751 mmHg 88%
    07:00 +11°C° 0,5 mm 3 m/s 751 mmHg 90%
    08:00 +11°C° 0,5 mm 3 m/s 751 mmHg 92%
    09:00 +11°C° 0,8 mm 3 m/s 751 mmHg 93%
    10:00 +11°C° 0,8 mm 4 m/s 751 mmHg 93%
    11:00 +11°C° 0,8 mm 4 m/s 750 mmHg 94%
    12:00 +10°C° 1,8 mm 4 m/s 750 mmHg 94%
    13:00 +10°C° 1,8 mm 4 m/s 750 mmHg 94%
    14:00 +10°C° 1,8 mm 4 m/s 750 mmHg 95%
    15:00 +10°C° 1,9 mm 4 m/s 750 mmHg 95%
    16:00 +9°C° 1,9 mm 5 m/s 750 mmHg 95%
    17:00 +9°C° 1,9 mm 5 m/s 750 mmHg 95%
    18:00 +9°C° 1,1 mm 5 m/s 751 mmHg 95%
    19:00 +10°C° 1,1 mm 4 m/s 751 mmHg 96%
    20:00 +10°C° 1,1 mm 4 m/s 751 mmHg 96%
    21:00 +10°C° 1 mm 4 m/s 751 mmHg 96%
    22:00 +10°C° 1 mm 4 m/s 751 mmHg 96%
    23:00 +9°C° 1 mm 5 m/s 751 mmHg 96%

    25 Juin, Lundi

    Heure Température Précipitation Vent Pression Humidité
    00:00 +9°C° 0,6 mm 5 m/s 751 mmHg 96%
    01:00 +9°C° 0,6 mm 5 m/s 752 mmHg 96%
    02:00 +9°C° 0,6 mm 5 m/s 752 mmHg 96%
    03:00 +10°C° 0,2 mm 4 m/s 752 mmHg 96%
    04:00 +10°C° 0,2 mm 4 m/s 752 mmHg 96%
    05:00 +10°C° 0,2 mm 4 m/s 752 mmHg 96%
    06:00 +11°C° 0,1 mm 4 m/s 753 mmHg 95%
    07:00 +11°C° 0,1 mm 4 m/s 753 mmHg 93%
    08:00 +12°C° 0,1 mm 4 m/s 753 mmHg 92%
    09:00 +12°C° 0,2 mm 4 m/s 754 mmHg 90%
    10:00 +13°C° 0,2 mm 4 m/s 754 mmHg 88%
    11:00 +13°C° 0,2 mm 3 m/s 754 mmHg 87%
    12:00 +14°C° 0,2 mm 3 m/s 755 mmHg 83%
    13:00 +16°C° 0,2 mm 3 m/s 755 mmHg 79%
    14:00 +17°C° 0,2 mm 3 m/s 755 mmHg 76%
    15:00 +17°C° 0,1 mm 3 m/s 755 mmHg 74%
    16:00 +17°C° 0,1 mm 2 m/s 755 mmHg 72%
    17:00 +18°C° 0,1 mm 2 m/s 755 mmHg 70%
    18:00 +17°C° 0 mm 2 m/s 756 mmHg 74%
    19:00 +16°C° 0 mm 1 m/s 756 mmHg 78%
    20:00 +15°C° 0 mm 1 m/s 756 mmHg 82%
    21:00 +14°C° 0 mm 1 m/s 756 mmHg 84%
    22:00 +13°C° 0 mm 1 m/s 756 mmHg 87%
    23:00 +12°C° 0 mm 1 m/s 757 mmHg 89%

    26 Juin, Mardi

    Heure Température Précipitation Vent Pression Humidité
    00:00 +12°C° 0 mm 1 m/s 757 mmHg 90%
    01:00 +10°C° 0 mm 2 m/s 757 mmHg 92%
    02:00 +10°C° 0 mm 2 m/s 757 mmHg 93%
    03:00 +10°C° 0 mm 2 m/s 757 mmHg 92%
    04:00 +12°C° 0 mm 1 m/s 757 mmHg 90%
    05:00 +12°C° 0 mm 1 m/s 757 mmHg 89%
    06:00 +13°C° 0 mm 1 m/s 757 mmHg 85%
    07:00 +15°C° 0 mm 1 m/s 757 mmHg 81%
    08:00 +16°C° 0 mm 1 m/s 758 mmHg 77%
    09:00 +16°C° 0,3 mm 1 m/s 758 mmHg 78%
    10:00 +16°C° 0,3 mm 1 m/s 758 mmHg 79%
    11:00 +18°C° 0,3 mm 1 m/s 758 mmHg 80%
    12:00 +18°C° 0,4 mm 1 m/s 758 mmHg 79%
    13:00 +17°C° 0,4 mm 2 m/s 758 mmHg 79%
    14:00 +17°C° 0,4 mm 2 m/s 758 mmHg 78%
    15:00 +18°C° 0,2 mm 2 m/s 758 mmHg 78%
    16:00 +18°C° 0,2 mm 2 m/s 758 mmHg 78%
    17:00 +18°C° 0,2 mm 2 m/s 758 mmHg 77%
    18:00 +17°C° 0,1 mm 2 m/s 758 mmHg 81%
    19:00 +16°C° 0,1 mm 2 m/s 758 mmHg 85%
    20:00 +16°C° 0,1 mm 2 m/s 758 mmHg 88%
    21:00 +14°C° 0 mm 2 m/s 758 mmHg 91%
    22:00 +13°C° 0 mm 2 m/s 758 mmHg 94%
    23:00 +12°C° 0 mm 2 m/s 758 mmHg 96%

    27 Juin, Mercredi

    Heure Température Précipitation Vent Pression Humidité
    00:00 +12°C° 0 mm 2 m/s 759 mmHg 96%
    01:00 +12°C° 0 mm 2 m/s 759 mmHg 96%
    02:00 +10°C° 0 mm 2 m/s 759 mmHg 96%
    03:00 +12°C° 0 mm 2 m/s 759 mmHg 95%
    04:00 +12°C° 0 mm 2 m/s 759 mmHg 93%
    05:00 +13°C° 0 mm 2 m/s 759 mmHg 92%
    06:00 +14°C° 0 mm 2 m/s 759 mmHg 84%
    07:00 +16°C° 0 mm 3 m/s 759 mmHg 76%
    08:00 +18°C° 0 mm 3 m/s 759 mmHg 68%
    09:00 +20°C° 0 mm 3 m/s 759 mmHg 63%
    10:00 +21°C° 0 mm 3 m/s 759 mmHg 58%
    11:00 +22°C° 0 mm 3 m/s 759 mmHg 52%
    12:00 +23°C° 0,1 mm 4 m/s 759 mmHg 52%
    13:00 +23°C° 0,1 mm 4 m/s 759 mmHg 52%
    14:00 +23°C° 0,1 mm 4 m/s 759 mmHg 52%
    15:00 +23°C° 0,1 mm 4 m/s 759 mmHg 54%
    16:00 +22°C° 0,1 mm 4 m/s 759 mmHg 56%
    17:00 +22°C° 0,1 mm 3 m/s 759 mmHg 58%
    18:00 +20°C° 0 mm 3 m/s 759 mmHg 64%
    19:00 +19°C° 0 mm 3 m/s 759 mmHg 70%
    20:00 +18°C° 0 mm 2 m/s 759 mmHg 76%
    21:00 +16°C° 0 mm 2 m/s 759 mmHg 81%
    22:00 +15°C° 0 mm 2 m/s 759 mmHg 86%
    23:00 +14°C° 0 mm 2 m/s 759 mmHg 90%
    Voir plus